| time (UTC) | temp F | wind direction | speed MPH | gust MPH | rain 1hr in | rain 24hr in | rain mn in | humidity % | barometer mb |
| 20260504203042 | 82 | 253 | 3.0 | 8.0 | 0.00 | 0.00 | 0.00 | 20 | 1008.2 |
| 20260504201538 | 82 | 283 | 3.0 | 10.0 | 0.00 | 0.00 | 0.00 | 21 | 1008.3 |
| 20260504200048 | 81 | 263 | 1.0 | 8.0 | 0.00 | 0.00 | 0.00 | 21 | 1008.3 |
| 20260504194536 | 82 | 334 | 3.0 | 5.0 | 0.00 | 0.00 | 0.00 | 20 | 1008.2 |
| 20260504193032 | 81 | 273 | 0.0 | 4.0 | 0.00 | 0.00 | 0.00 | 21 | 1008.3 |
| 20260504191530 | 80 | 208 | 0.0 | 6.0 | 0.00 | 0.00 | 0.00 | 22 | 1008.5 |
| 20260504190028 | 79 | 245 | 2.0 | 5.0 | 0.00 | 0.00 | 0.00 | 24 | 1008.4 |
| 20260504184533 | 80 | 283 | 1.0 | 5.0 | 0.00 | 0.00 | 0.00 | 25 | 1008.9 |
| 20260504183031 | 79 | 150 | 2.0 | 4.0 | 0.00 | 0.00 | 0.00 | 25 | 1009.0 |
| 20260504181521 | 78 | 145 | 1.0 | 8.0 | 0.00 | 0.00 | 0.00 | 26 | 1009.3 |
| 20260504180022 | 78 | 236 | 2.0 | 8.0 | 0.00 | 0.00 | 0.00 | 26 | 1009.2 |
| 20260504174517 | 77 | 255 | 3.0 | 11.0 | 0.00 | 0.00 | 0.00 | 27 | 1009.4 |
| 20260504173016 | 76 | 255 | 3.0 | 11.0 | 0.00 | 0.00 | 0.00 | 27 | 1009.3 |
| 20260504171515 | 76 | 226 | 4.0 | 12.0 | 0.00 | 0.00 | 0.00 | 27 | 1009.4 |
| 20260504150104 | 74 | 231 | 1.0 | 7.0 | 0.00 | 0.00 | 0.00 | 34 | 1009.6 |
| 20260504081525 | 66 | 200 | 0.0 | 0.0 | 0.00 | 0.00 | 0.00 | 36 | 1007.4 |
| 20260504044552 | 75 | 225 | 4.0 | 9.0 | 0.00 | 0.00 | 0.00 | 28 | 1008.2 |
| 20260504043110 | 75 | 278 | 4.0 | 13.0 | 0.00 | 0.00 | 0.00 | 27 | 1008.1 |
| 20260504041549 | 75 | 267 | 4.0 | 11.0 | 0.00 | 0.00 | 0.00 | 26 | 1008.0 |
| 20260504040049 | 75 | 258 | 0.0 | 6.0 | 0.00 | 0.00 | 0.00 | 25 | 1007.6 |
| 20260504034552 | 76 | 268 | 1.0 | 5.0 | 0.00 | 0.00 | 0.00 | 24 | 1007.1 |
| 20260504033050 | 76 | 221 | 1.0 | 7.0 | 0.00 | 0.00 | 0.00 | 23 | 1007.0 |
| 20260504031553 | 77 | 275 | 1.0 | 4.0 | 0.00 | 0.00 | 0.00 | 22 | 1006.7 |
| 20260504024547 | 79 | 248 | 5.0 | 13.0 | 0.00 | 0.00 | 0.00 | 19 | 1005.9 |
| 20260504023046 | 80 | 216 | 5.0 | 12.0 | 0.00 | 0.00 | 0.00 | 18 | 1005.5 |
| 20260504021548 | 81 | 261 | 5.0 | 12.0 | 0.00 | 0.00 | 0.00 | 17 | 1005.2 |
| 20260504020044 | 82 | 283 | 5.0 | 15.0 | 0.00 | 0.00 | 0.00 | 16 | 1004.9 |
| 20260504014544 | 82 | 212 | 4.0 | 13.0 | 0.00 | 0.00 | 0.00 | 16 | 1004.8 |
| 20260504013047 | 84 | 239 | 8.0 | 16.0 | 0.00 | 0.00 | 0.00 | 15 | 1004.5 |
| 20260504011540 | 85 | 236 | 5.0 | 12.0 | 0.00 | 0.00 | 0.00 | 14 | 1004.6 |
| 20260504010050 | 86 | 217 | 6.0 | 16.0 | 0.00 | 0.00 | 0.00 | 15 | 1004.8 |
| 20260504004544 | 86 | 236 | 6.0 | 16.0 | 0.00 | 0.00 | 0.00 | 14 | 1004.9 |
| 20260504003039 | 86 | 232 | 7.0 | 15.0 | 0.00 | 0.00 | 0.00 | 14 | 1004.8 |
| 20260504001540 | 88 | 198 | 6.0 | 15.0 | 0.00 | 0.00 | 0.00 | 14 | 1004.6 |
| 20260504000037 | 89 | 221 | 9.0 | 16.0 | 0.00 | 0.00 | 0.00 | 14 | 1004.7 |
| 20260503234540 | 89 | 229 | 7.0 | 16.0 | 0.00 | 0.00 | 0.00 | 14 | 1004.3 |
| 20260503233035 | 90 | 250 | 6.0 | 13.0 | 0.00 | 0.00 | 0.00 | 15 | 1004.3 |
| 20260503231534 | 91 | 186 | 4.0 | 8.0 | 0.00 | 0.00 | 0.00 | 15 | 1004.3 |
| 20260503230050 | 90 | 229 | 6.0 | 13.0 | 0.00 | 0.00 | 0.00 | 16 | 1004.5 |
| 20260503224530 | 89 | 217 | 6.0 | 15.0 | 0.00 | 0.00 | 0.00 | 16 | 1004.7 |
| 20260503223028 | 90 | 233 | 6.0 | 17.0 | 0.00 | 0.00 | 0.00 | 16 | 1004.8 |
| 20260503221528 | 89 | 265 | 2.0 | 6.0 | 0.00 | 0.00 | 0.00 | 17 | 1004.8 |
| 20260503220031 | 88 | 133 | 3.0 | 8.0 | 0.00 | 0.00 | 0.00 | 17 | 1004.8 |
| 20260503214532 | 88 | 243 | 0.0 | 8.0 | 0.00 | 0.00 | 0.00 | 23 | 1005.1 |
| 20260503213029 | 88 | 148 | 5.0 | 10.0 | 0.00 | 0.00 | 0.00 | 22 | 1005.5 |
| 20260503211517 | 88 | 117 | 3.0 | 9.0 | 0.00 | 0.00 | 0.00 | 24 | 1005.7 |
| 20260503210016 | 87 | 233 | 1.0 | 4.0 | 0.00 | 0.00 | 0.00 | 26 | 1005.8 |
| 20260503204516 | 87 | 180 | 1.0 | 5.0 | 0.00 | 0.00 | 0.00 | 26 | 1006.1 |